Temp
57 57 57 58 58 58 58 59 58 58 58 59 59 59 60 60 60 64 75 77 71 71 77 77 78 74 79 78 75 81 81 81 80 74 75 76 75 78 76 79 76 74 70 73 74 67 63 86 86 77 81 87 87 87
56 57 57 57 58 58 58 58 58 58 58 58 59 59 59 60 60 60 72 77 76 68 74 79 79 81 80 80 77 85 78 77 82 78 78 79 76 78 75 69 84 73 79 73 72 73 61 76 85 88 90 86 86 85
56 56 57 57 57 58 58 58 58 57 58 58 59 59 59 59 59 60 69 73 72 69 73 76 76 83 86 83 86 73 82 81 81 82 78 80 72 80 71 74 76 78 82 78 78 83 82 85 87 88 89 86 89 91
56 56 56 56 57 57 57 58 57 57 57 57 58 59 59 59 59 58 69 70 72 69 66 77 84 77 84 86 84 83 82 83 83 82 77 76 75 83 76 78 77 82 80 77 78 82 85 85 87 87 88 90 89 91
56 56 56 56 56 57 57 57 57 57 57 57 58 58 59 59 58 64 68 69 72 65 64 71 80 84 85 84 80 81 80 79 77 74 74 74 81 80 80 80 76 84 79 76 71 80 80 72 86 89 88 88 89 88
55 55 56 56 56 57 57 57 56 56 57 57 57 58 58 58 56 64 60 74 73 72 62 65 78 76 79 78 78 76 78 78 77 75 74 79 85 79 72 72 82 86 87 88 82 75 83 85 88 91 90 91 91 90
55 55 55 56 56 56 56 56 56 56 56 57 57 57 57 56 64 60 54 59 62 72 58 60 71 77 77 77 78 77 79 77 76 75 73 75 78 76 73 68 79 84 85 84 88 86 82 86 85 91 91 92 87 93
55 55 55 56 56 56 56 56 56 56 56 56 56 56 56 56 58 61 65 58 63 56 55 54 66 69 77 73 70 78 73 75 74 73 77 74 78 77 69 76 80 82 83 84 85 87 87 89 90 90 92 92 90 90
55 55 55 56 56 56 55 55 55 55 55 56 56 56 62 61 61 65 59 58 66 56 50 57 61 55 75 72 72 73 75 66 77 70 72 76 73 68 74 75 78 81 80 82 86 87 88 87 87 88 89 90 89 88
54 55 55 55 55 55 55 55 55 55 55 55 60 52 49 60 59 60 61 54 51 54 58 54 63 59 69 71 71 71 72 69 63 72 78 72 71 80 82 83 82 81 82 83 80 80 83 83 85 87 88 90 90 89
54 55 55 55 55 54 54 55 55 55 55 58 54 52 55 59 62 60 54 54 51 47 53 57 65 61 73 65 65 70 69 70 65 72 71 71 71 77 82 78 81 82 82 82 84 85 86 87 87 88 88 89 89 85
55 54 54 54 54 54 54 55 55 60 63 59 56 57 56 53 53 52 52 56 53 50 62 61 64 65 65 73 69 73 65 66 60 73 64 66 67 74 76 77 79 80 80 82 84 84 85 86 88 88 88 87 87 85
54 54 54 54 54 55 55 55 55 55 56 56 54 53 50 50 43 50 48 52 51 56 60 62 61 65 67 71 68 66 62 65 73 62 65 64 65 74 74 76 77 80 81 82 84 85 85 85 88 88 84 84 85 83
53 53 53 54 54 55 54 55 55 55 55 53 54 40 48 49 58 58 56 59 64 64 64 60 58 58 69 66 69 61 69 69 59 59 61 65 68 71 74 76 76 74 78 83 83 85 86 85 85 86 84 81 80 69
53 53 53 53 54 54 55 55 55 55 56 53 55 44 55 63 63 64 64 63 69 70 61 62 63 67 63 60 66 65 60 60 66 64 69 67 70 71 72 72 67 67 75 83 84 85 83 83 83 82 84 82 74 74
53 54 53 53 55 54 54 55 55 53 60 57 58 57 60 62 61 66 67 65 72 71 64 62 59 59 61 63 59 61 62 60 64 72 71 74 69 69 68 66 65 68 71 80 82 83 82 80 80 80 78 73 73 74
54 51 53 54 54 54 54 54 53 51 57 57 60 67 66 60 58 60 63 63 68 65 59 62 57 59 67 62 61 68 58 64 69 72 76 71 68 68 68 67 66 69 69 74 76 77 76 80 76 73 72 74 77 78
52 53 54 54 55 54 54 53 50 51 53 60 57 57 65 62 63 61 64 66 61 62 64 61 67 60 59 58 60 62 71 73 77 76 75 73 71 70 70 67 66 68 72 73 73 77 77 77 76 78 77 78 79 78
54 54 54 55 55 54 51 53 52 48 56 61 63 67 66 68 60 65 61 67 69 68 65 64 61 63 65 68 64 66 67 66 67 71 75 75 73 70 69 67 68 68 70 65 69 73 75 78 80 82 81 81 79 80
54 54 54 55 56 54 51 55 63 56 55 58 66 65 65 65 65 69 71 70 68 64 60 60 64 69 67 66 66 69 73 71 71 70 73 76 77 73 71 65 66 71 73 72 75 65 74 76 78 78 82 80 79 79
56 55 57 55 55 53 55 58 61 61 62 63 66 67 66 67 65 64 61 62 58 58 62 69 71 72 73 72 71 69 71 73 71 72 69 70 75 73 69 64 69 69 73 71 74 71 70 74 76 74 78 78 80 82
53 55 55 55 53 57 57 64 61 63 62 64 64 62 57 56 57 60 62 60 60 63 65 66 67 69 70 66 70 71 72 69 69 71 61 63 70 66 63 64 69 70 66 62 64 71 72 70 73 79 79 78 76 79
56 57 60 58 54 53 53 68 57 60 53 51 55 51 49 50 52 56 50 56 61 61 59 63 61 65 67 69 67 68 69 69 70 73 73 70 67 66 62 65 66 63 61 63 74 76 74 63 72 78 79 79 79 78
53 57 54 53 55 49 56 53 56 56 53 49 48 46 48 49 52 49 48 51 54 56 56 57 62 59 60 63 64 64 65 66 68 67 67 61 60 60 60 61 63 62 66 81 80 77 77 78 68 78 79 79 79 78
47 49 52 40 62 56 54 53 53 49 46 47 46 46 47 50 46 46 47 51 53 53 55 56 56 56 55 56 57 58 61 61 59 59 61 62 60 60 59 60 60 66 74 75 80 79 79 80 82 81 81 80 79 79
40 57 47 57 57 55 53 47 47 47 47 46 47 50 50 48 47 46 49 52 53 54 55 55 54 55 55 57 56 57 58 60 59 58 59 60 60 58 57 56 58 62 71 73 74 71 74 77 79 80 81 77 59 78
43 51 62 66 60 56 51 51 50 48 47 46 49 49 50 46 45 49 54 56 56 57 58 57 57 57 57 58 58 59 59 60 60 61 62 62 63 64 65 66 64 67 70 72 73 77 78 78 78 78 82 83 80 80
58 56 53 58 56 54 49 50 49 48 49 53 53 48 47 47 48 53 56 60 59 60 59 59 63 65 68 71 67 67 69 64 63 65 70 67 65 67 63 63 67 54 63 80 77 82 83 84 82 82 81 80 80 80
62 68 64 58 56 52 50 49 50 53 58 56 50 47 49 54 56 56 59 65 73 70 71 65 58 59 66 79 77 74 73 72 67 65 66 67 71 71 72 73 74 71 80 82 47 62 76 78 78 78 80 81 79 83
62 69 61 59 53 49 51 55 54 64 67 64 64 60 55 53 59 70 64 73 73 69 74 78 79 78 77 74 75 77 80 77 76 75 73 70 74 80 81 82 83 86 85 83 80 81 53 73 71 82 78 80 81 72
69 65 60 55 51 55 55 63 63 66 69 63 68 65 60 61 67 76 76 77 77 77 77 76 77 78 78 76 75 75 75 80 78 78 78 79 79 82 83 84 84 84 83 83 83 83 82 80 82 77 76 75 78 76
69 61 58 53 52 55 57 60 60 60 63 62 61 66 68 69 64 70 76 76 74 74 65 74 75 74 78 80 80 78 61 76 75 76 74 76 77 78 82 81 82 82 80 81 80 80 77 79 79 78 78 76 79 78
66 63 62 55 51 52 54 54 53 55 56 62 64 66 69 67 62 71 78 78 74 73 74 77 79 79 78 78 78 78 70 76 60 44 46 44 40 51 75 80 79 80 80 81 80 79 78 75 73 73 72 71 71 72
MSLP
1012.48 1012.63 1012.78 1012.95 1013.06 1013.14 1013.28 1013.48 1013.84 1014.32 1014.82 1015.27 1015.59 1015.76 1015.91 1015.95 1015.93 1015.63 1013.35 1013.63 1013.07 1010.67 1008.62 1008.32 1007.91 1007.29 1006.25 1005.96 1004.70 1003.90 1004.12 1003.69 1002.88 1002.24 1001.55 1000.36 999.75 999.41 999.67 999.29 999.21 999.48 999.58 999.30 999.26 999.77 999.87 1000.05 999.15 999.40 999.62 999.77 1000.07 1000.13
1011.74 1011.91 1012.10 1012.31 1012.46 1012.66 1012.76 1012.93 1013.27 1013.82 1014.40 1014.94 1015.37 1015.50 1015.74 1015.88 1015.90 1015.91 1013.75 1013.69 1013.46 1012.54 1009.63 1009.63 1009.19 1008.74 1008.28 1007.73 1006.85 1004.76 1004.62 1004.28 1003.33 1002.74 1002.27 1001.21 1000.26 1000.01 999.98 999.50 999.53 999.74 999.80 999.83 1000.99 1000.94 1002.71 1002.19 1000.03 1000.65 1000.22 1000.22 1000.35 1000.43
1011.00 1011.24 1011.47 1011.68 1011.90 1012.12 1012.26 1012.47 1012.79 1013.37 1013.99 1014.62 1015.06 1015.29 1015.53 1015.72 1015.80 1015.75 1014.50 1013.90 1013.31 1011.83 1009.75 1008.53 1007.80 1007.65 1008.34 1008.40 1008.20 1007.13 1005.55 1005.38 1005.01 1005.12 1003.90 1001.85 1001.35 1000.95 1000.25 999.99 1000.09 1001.10 1000.75 1000.37 1000.35 1000.20 1000.61 1000.55 1000.73 1000.87 1000.70 1000.78 1000.68 1000.31
1010.30 1010.53 1010.83 1011.09 1011.33 1011.56 1011.77 1012.00 1012.36 1012.97 1013.72 1014.42 1014.80 1015.08 1015.36 1015.57 1015.73 1015.82 1014.33 1014.14 1013.39 1012.22 1009.79 1006.96 1007.63 1007.85 1007.96 1007.68 1007.91 1007.88 1007.23 1007.07 1006.48 1005.95 1004.72 1003.50 1002.38 1001.78 1001.37 1000.99 1000.63 1000.23 1001.13 1000.60 1000.58 1000.49 1000.38 1000.73 1000.71 1000.85 1000.89 1000.81 1000.66 1000.41
1009.62 1009.91 1010.22 1010.46 1010.66 1010.96 1011.27 1011.48 1011.95 1012.71 1013.53 1014.08 1014.59 1014.97 1015.25 1015.51 1015.71 1015.40 1014.64 1014.29 1013.93 1013.40 1010.54 1008.16 1007.50 1007.11 1007.35 1007.38 1007.73 1007.83 1007.72 1007.35 1006.70 1005.87 1004.96 1003.82 1002.93 1002.34 1002.31 1001.75 1000.92 1000.77 1000.53 1000.78 1000.55 1001.00 1000.83 1001.81 1001.03 1001.18 1000.77 1000.59 1000.58 1000.55
1008.98 1009.37 1009.68 1009.85 1010.01 1010.38 1010.76 1011.10 1011.73 1012.58 1013.31 1013.91 1014.49 1014.78 1015.23 1015.44 1015.78 1015.08 1014.43 1013.33 1013.83 1013.65 1012.66 1009.12 1007.78 1007.35 1007.42 1007.75 1007.57 1007.58 1007.49 1007.37 1007.01 1006.06 1005.23 1004.13 1003.27 1003.64 1002.39 1001.00 1000.69 1000.42 1000.24 1000.33 1000.58 1000.84 1000.34 1001.41 1001.64 1001.07 1000.32 1000.09 1000.33 1000.42
1008.46 1008.89 1009.18 1009.32 1009.44 1009.87 1010.33 1010.85 1011.65 1012.51 1013.29 1013.92 1014.35 1014.83 1015.23 1015.50 1015.35 1015.17 1015.36 1015.16 1014.80 1013.95 1013.55 1010.70 1007.23 1007.13 1007.45 1007.46 1007.29 1007.22 1007.26 1006.98 1006.78 1006.11 1005.41 1004.61 1003.88 1003.90 1003.00 1001.97 1001.55 1001.08 1000.74 1000.86 1000.92 1001.17 1001.08 1001.06 1000.84 1000.37 1000.30 1000.05 1000.05 1000.02
1008.06 1008.40 1008.67 1008.83 1009.02 1009.48 1010.01 1010.77 1011.71 1012.58 1013.29 1013.89 1014.51 1014.95 1015.41 1015.80 1015.81 1015.12 1014.86 1015.51 1015.45 1014.93 1014.30 1011.88 1008.00 1007.17 1007.34 1006.50 1006.47 1006.67 1006.62 1006.60 1006.26 1005.59 1004.65 1003.96 1003.61 1003.14 1002.27 1002.07 1001.82 1001.67 1001.58 1001.45 1001.31 1001.31 1001.07 1000.72 1000.53 1000.31 1000.12 999.94 999.83 999.75
1007.61 1007.89 1008.13 1008.38 1008.74 1009.24 1009.97 1010.96 1011.86 1012.74 1013.43 1014.05 1014.67 1015.30 1015.51 1015.52 1014.69 1014.18 1015.12 1015.43 1015.09 1015.34 1013.85 1011.67 1008.70 1007.64 1007.04 1006.31 1006.03 1006.50 1006.04 1005.60 1004.94 1004.51 1004.07 1003.42 1002.50 1001.68 1001.42 1001.89 1001.64 1001.58 1001.56 1001.26 1000.77 1000.52 1000.21 1000.02 1000.06 999.98 999.84 999.76 999.75 999.87
1007.11 1007.35 1007.63 1008.11 1008.58 1009.22 1010.16 1011.17 1012.16 1012.85 1013.69 1014.15 1014.66 1015.21 1014.71 1014.01 1014.30 1014.70 1015.14 1015.15 1015.23 1014.45 1013.43 1011.52 1009.72 1008.07 1007.04 1005.63 1005.24 1005.34 1005.29 1004.03 1003.45 1002.77 1002.89 1002.17 1001.39 1000.98 1000.87 1001.09 1001.27 1001.67 1001.74 1001.51 1000.81 1000.37 1000.25 1000.04 999.82 999.70 999.59 999.58 999.62 999.93
1006.68 1007.05 1007.56 1007.90 1008.63 1009.57 1010.51 1011.47 1012.28 1013.13 1013.90 1013.89 1013.78 1014.17 1014.52 1014.26 1013.97 1013.54 1013.06 1013.13 1013.51 1012.94 1012.05 1010.54 1009.05 1007.78 1006.95 1005.83 1005.18 1004.68 1003.97 1003.16 1002.21 1001.40 1001.36 1000.63 1000.32 1000.07 1000.90 1001.57 1001.94 1001.90 1001.61 1001.30 1000.87 1000.52 1000.25 1000.01 999.72 999.38 999.50 999.66 999.86 1000.45
1006.61 1006.97 1007.50 1008.25 1009.14 1009.97 1010.86 1011.65 1012.40 1012.44 1012.51 1012.77 1013.22 1014.02 1014.51 1014.27 1013.47 1012.38 1011.67 1011.51 1011.38 1010.76 1009.26 1008.53 1008.09 1007.98 1007.17 1006.40 1005.15 1004.69 1003.89 1003.38 1002.09 1001.98 1001.69 1000.77 1001.47 1001.76 1001.97 1002.06 1002.01 1001.85 1001.48 1000.94 1000.36 999.99 999.82 999.70 999.59 999.50 999.51 999.83 1000.08 1000.73
1006.78 1007.44 1008.16 1008.93 1009.71 1010.54 1011.29 1011.96 1012.42 1012.55 1012.65 1013.18 1013.34 1013.25 1013.27 1013.05 1012.12 1010.37 1009.46 1009.08 1009.02 1008.90 1008.62 1008.00 1007.58 1007.22 1007.05 1006.36 1005.23 1004.70 1003.66 1002.13 1002.00 1002.00 1001.02 1001.55 1002.38 1002.37 1002.50 1002.39 1002.18 1001.81 1001.22 1000.37 999.63 999.39 999.32 999.40 999.36 999.50 999.97 1000.26 1000.54 1001.42
1007.68 1008.36 1009.02 1009.69 1010.41 1011.12 1011.69 1012.52 1012.79 1012.94 1012.88 1012.37 1011.77 1011.82 1011.22 1010.13 1008.53 1007.89 1007.95 1007.27 1007.02 1007.15 1007.16 1007.63 1007.43 1006.91 1005.55 1005.18 1004.42 1003.79 1002.61 1002.37 1001.89 1001.11 1001.13 1002.54 1002.92 1002.87 1002.77 1002.78 1002.57 1002.30 1001.47 1000.08 999.52 999.11 998.94 999.08 999.42 999.69 1000.13 1000.74 1001.31 1002.75
1008.80 1009.36 1009.91 1010.61 1011.06 1011.65 1012.29 1012.74 1013.00 1013.10 1012.62 1011.49 1010.78 1010.14 1008.87 1007.82 1007.61 1007.25 1007.25 1007.11 1006.66 1006.85 1007.43 1007.37 1006.76 1005.58 1005.39 1005.12 1003.66 1003.12 1002.61 1001.47 1000.59 1000.62 1001.53 1002.59 1003.28 1003.29 1003.39 1003.49 1003.58 1003.06 1001.75 1000.11 999.85 999.45 999.44 999.56 999.74 1000.09 1000.41 1000.90 1001.84 1002.15
1009.66 1010.14 1010.80 1011.19 1011.49 1012.14 1012.54 1012.91 1013.16 1013.26 1011.86 1010.96 1009.73 1008.59 1007.98 1007.14 1006.78 1006.64 1006.73 1006.32 1006.22 1006.68 1007.30 1007.02 1006.06 1005.36 1004.30 1003.94 1003.50 1002.31 1001.63 1000.83 1001.14 1001.06 1001.89 1002.70 1003.67 1003.99 1004.17 1004.25 1003.77 1003.31 1002.48 1000.94 1000.34 1000.21 1000.17 1000.34 1000.50 1000.76 1001.28 1001.99 1002.47 1002.99
1010.14 1010.62 1011.27 1011.48 1012.09 1012.58 1012.88 1013.14 1013.21 1012.79 1011.44 1009.89 1008.33 1007.63 1007.50 1007.67 1007.38 1007.28 1007.20 1007.19 1007.13 1006.88 1006.35 1006.00 1005.23 1004.26 1003.46 1002.97 1002.30 1001.83 1002.08 1002.38 1002.00 1002.04 1002.69 1003.63 1004.09 1004.24 1004.36 1004.26 1004.02 1003.48 1002.86 1001.81 1001.63 1001.37 1001.27 1001.05 1001.54 1002.00 1002.21 1002.45 1002.63 1002.94
1010.81 1011.40 1011.60 1012.09 1012.58 1013.26 1013.51 1013.35 1013.04 1012.31 1010.49 1009.03 1008.22 1007.88 1007.47 1007.76 1007.55 1007.62 1007.39 1007.31 1007.37 1006.84 1006.18 1005.60 1004.91 1004.01 1003.20 1002.55 1002.35 1003.16 1002.97 1002.68 1002.70 1002.82 1003.02 1003.68 1003.99 1004.26 1004.30 1004.30 1004.26 1003.74 1003.10 1002.73 1002.34 1001.89 1001.65 1001.60 1001.88 1002.08 1002.47 1002.76 1002.98 1003.31
1011.38 1011.81 1012.32 1012.61 1012.75 1012.64 1012.82 1012.95 1012.76 1011.47 1009.65 1008.52 1007.71 1007.28 1006.94 1007.11 1007.57 1007.46 1007.41 1007.26 1007.03 1007.16 1006.79 1005.93 1004.75 1003.21 1002.56 1002.59 1003.05 1003.32 1003.42 1003.45 1003.43 1003.31 1003.11 1003.18 1003.79 1004.28 1004.48 1004.53 1004.36 1003.80 1003.58 1003.43 1003.05 1002.83 1002.38 1001.94 1001.80 1002.08 1002.64 1002.84 1002.92 1003.34
1012.21 1012.54 1012.69 1012.61 1012.59 1012.40 1012.32 1011.63 1011.35 1010.54 1008.72 1008.07 1007.21 1006.61 1006.52 1006.32 1006.57 1006.41 1006.27 1006.30 1006.25 1006.57 1006.35 1005.40 1004.12 1003.13 1002.88 1003.37 1003.82 1003.78 1003.60 1003.81 1003.83 1003.49 1003.08 1002.87 1003.02 1003.94 1004.34 1004.82 1004.45 1004.10 1003.94 1003.89 1003.63 1003.57 1003.26 1002.83 1002.74 1002.84 1002.86 1002.66 1002.86 1003.25
1012.58 1013.03 1013.05 1013.08 1012.87 1012.63 1011.66 1010.33 1009.42 1008.73 1007.94 1007.13 1006.55 1006.35 1006.08 1005.94 1006.14 1006.33 1006.81 1007.14 1007.15 1006.40 1005.31 1004.41 1003.77 1003.33 1003.65 1003.84 1004.20 1004.22 1004.19 1004.27 1004.07 1003.71 1003.48 1003.44 1003.33 1004.13 1004.72 1004.98 1004.79 1004.46 1003.76 1003.94 1003.72 1003.79 1003.22 1003.19 1003.36 1003.62 1003.39 1003.30 1003.28 1003.45
1013.13 1013.35 1013.30 1013.15 1012.57 1011.41 1010.63 1009.65 1008.93 1008.70 1008.28 1007.35 1006.97 1007.11 1007.05 1007.07 1007.13 1007.20 1007.66 1007.18 1006.50 1005.73 1005.52 1005.12 1004.61 1004.25 1003.96 1004.24 1004.13 1003.98 1003.92 1004.17 1004.20 1003.99 1003.83 1003.91 1004.04 1004.56 1004.99 1004.99 1004.61 1004.57 1004.55 1004.18 1004.54 1003.89 1004.09 1003.94 1003.89 1003.73 1003.67 1003.86 1004.12 1004.56
1013.18 1013.21 1012.44 1011.90 1011.23 1010.55 1009.62 1008.85 1008.70 1008.44 1008.35 1008.39 1008.34 1008.25 1008.35 1008.45 1008.53 1008.65 1008.15 1007.30 1006.36 1006.20 1006.03 1005.61 1005.35 1005.09 1004.61 1004.25 1004.40 1004.31 1004.16 1003.99 1003.72 1003.34 1003.41 1003.96 1004.49 1004.85 1005.08 1005.05 1005.18 1005.14 1005.03 1004.63 1004.28 1004.02 1004.23 1004.37 1004.25 1004.06 1004.27 1004.23 1004.44 1004.87
1012.81 1011.94 1011.19 1010.73 1010.29 1009.63 1009.27 1009.18 1009.22 1008.89 1008.96 1008.98 1009.02 1008.95 1009.01 1009.11 1009.09 1008.69 1008.06 1007.45 1006.95 1006.22 1005.78 1005.50 1005.12 1005.14 1005.01 1004.73 1004.43 1004.14 1004.04 1004.01 1003.75 1003.83 1004.16 1004.61 1004.76 1004.91 1005.00 1005.33 1005.31 1005.21 1004.55 1003.15 1003.42 1003.92 1004.10 1004.11 1004.47 1004.23 1004.23 1004.35 1004.55 1004.80
1012.27 1011.35 1010.81 1010.01 1008.94 1008.68 1008.42 1008.44 1008.54 1009.08 1009.19 1009.37 1009.38 1009.44 1009.39 1009.40 1009.22 1008.81 1007.85 1007.32 1007.07 1006.73 1006.16 1005.77 1005.56 1005.15 1004.80 1004.77 1004.77 1004.88 1004.73 1004.50 1004.29 1004.07 1004.25 1004.60 1004.91 1005.05 1005.39 1005.76 1005.54 1005.03 1004.37 1003.46 1003.29 1003.58 1003.74 1003.98 1003.59 1003.83 1004.00 1004.18 1004.46 1004.58
1011.15 1009.76 1009.74 1008.44 1008.21 1008.31 1008.54 1008.84 1009.13 1009.32 1009.45 1009.43 1009.32 1009.17 1009.22 1009.08 1008.81 1008.59 1008.15 1008.14 1007.82 1007.58 1007.01 1006.45 1006.14 1005.69 1005.07 1004.91 1005.16 1004.96 1005.04 1005.03 1004.71 1004.24 1004.65 1005.05 1005.14 1005.30 1005.96 1006.13 1005.96 1005.57 1005.01 1004.67 1004.32 1003.66 1003.47 1003.42 1003.42 1003.49 1003.55 1004.15 1004.76 1004.40
1010.45 1009.27 1008.69 1008.65 1008.59 1008.72 1008.92 1009.15 1009.26 1009.23 1009.08 1008.92 1008.89 1008.81 1008.85 1008.93 1008.94 1008.78 1008.68 1008.41 1008.16 1007.84 1007.41 1006.94 1006.64 1006.24 1005.75 1005.23 1005.33 1005.24 1005.19 1005.21 1005.26 1005.34 1005.52 1005.69 1005.90 1006.24 1006.38 1006.37 1006.35 1005.80 1005.58 1005.11 1004.80 1004.07 1003.46 1003.56 1003.48 1003.30 1003.19 1003.50 1003.84 1003.96
1009.68 1009.14 1008.33 1008.18 1008.31 1008.66 1008.95 1008.93 1008.88 1008.77 1008.65 1008.60 1008.47 1008.73 1009.01 1009.43 1009.78 1009.70 1009.25 1008.55 1007.89 1007.53 1007.05 1006.53 1006.07 1005.44 1004.71 1004.03 1004.81 1005.11 1005.16 1005.21 1005.36 1005.47 1005.57 1005.90 1006.13 1006.21 1006.40 1006.51 1006.36 1005.79 1005.79 1004.67 1004.42 1003.72 1003.55 1003.53 1003.50 1003.37 1003.25 1003.29 1003.45 1003.64
1008.67 1008.03 1007.99 1007.94 1008.46 1009.08 1009.77 1009.60 1009.53 1009.22 1008.74 1008.44 1009.01 1009.64 1010.11 1010.35 1010.34 1009.75 1008.62 1007.78 1006.92 1006.14 1005.65 1006.23 1006.42 1005.58 1004.82 1004.19 1004.35 1004.59 1005.11 1005.07 1005.22 1005.00 1005.06 1005.07 1004.99 1005.29 1005.17 1004.98 1004.78 1004.72 1004.00 1004.01 1004.65 1004.38 1004.35 1004.48 1004.37 1004.27 1003.61 1003.52 1003.50 1003.45
1008.13 1007.92 1007.98 1008.53 1009.29 1010.01 1010.44 1010.19 1009.86 1009.18 1008.92 1008.99 1009.18 1009.92 1010.29 1010.16 1009.30 1008.43 1008.28 1007.28 1006.67 1006.38 1005.95 1005.41 1004.94 1004.75 1004.78 1004.66 1004.56 1004.62 1004.81 1004.85 1004.84 1004.64 1004.61 1004.53 1004.38 1004.04 1003.92 1003.81 1003.63 1003.31 1003.38 1003.46 1004.03 1004.35 1004.66 1004.33 1004.13 1004.15 1003.93 1003.58 1003.42 1003.90
1008.25 1008.03 1008.51 1009.44 1010.34 1010.69 1010.81 1010.36 1009.94 1009.35 1008.71 1008.88 1008.65 1008.66 1009.09 1009.37 1009.12 1008.49 1008.17 1007.69 1007.30 1006.97 1006.40 1006.12 1006.05 1005.87 1005.64 1005.75 1005.74 1005.53 1005.71 1006.12 1006.36 1006.11 1006.02 1005.31 1005.09 1004.80 1004.44 1004.15 1004.05 1003.94 1003.85 1003.81 1003.88 1003.91 1003.97 1003.83 1003.60 1003.91 1003.85 1003.70 1003.50 1003.54
1007.83 1008.33 1008.92 1009.92 1010.84 1011.24 1011.06 1010.57 1010.38 1009.96 1009.54 1009.13 1008.76 1008.25 1008.07 1008.15 1008.57 1008.87 1008.80 1008.57 1008.29 1007.80 1007.61 1007.21 1007.07 1007.17 1007.03 1006.68 1006.68 1007.01 1007.48 1007.47 1007.62 1007.61 1007.68 1007.27 1007.02 1006.59 1005.47 1005.09 1004.78 1004.65 1004.46 1004.31 1004.19 1003.95 1004.05 1003.85 1003.81 1003.77 1003.70 1003.84 1003.47 1003.48
1008.02 1008.64 1009.02 1010.14 1010.90 1011.18 1011.40 1011.19 1010.88 1010.58 1010.24 1009.62 1009.22 1008.78 1008.47 1008.81 1009.09 1009.28 1009.20 1009.29 1009.33 1009.10 1008.58 1008.19 1007.97 1007.87 1007.98 1007.81 1007.77 1007.40 1007.44 1008.24 1008.73 1008.68 1008.78 1008.78 1008.62 1008.16 1007.12 1006.78 1006.51 1005.85 1005.26 1004.87 1004.43 1004.22 1004.10 1004.28 1004.42 1004.32 1004.33 1004.36 1004.31 1004.23
Wind_Speed
15 15 14 13 12 13 13 13 16 16 14 13 11 8 7 4 6 7 4 2 5 6 10 4 8 9 6 4 10 5 5 10 9 12 12 12 9 6 9 15 13 11 10 14 9 15 6 14 6 8 9 8 9 9
16 15 15 14 13 12 12 13 17 17 15 14 12 10 8 6 6 7 2 1 5 6 9 10 11 13 12 11 11 4 6 7 6 5 10 9 10 5 7 11 11 13 14 8 5 2 4 24 5 9 9 9 8 9
16 15 14 13 13 12 12 13 17 18 16 14 13 11 9 6 6 8 3 3 6 7 11 12 10 12 15 12 10 7 6 5 5 6 8 5 6 10 9 11 11 14 8 10 13 10 4 4 4 4 8 6 9 10
15 15 14 13 14 14 12 12 18 18 16 15 13 11 9 6 7 9 4 3 5 7 6 4 4 4 5 10 14 14 12 6 7 5 7 7 8 7 9 11 10 7 4 6 11 16 10 5 2 6 8 8 8 9
15 15 14 12 14 15 13 13 18 19 18 16 13 11 9 6 7 7 4 5 3 4 7 7 11 7 4 10 9 14 14 12 6 7 7 8 9 7 7 12 10 10 11 11 5 6 2 7 7 10 11 10 7 8
15 14 12 12 12 15 13 16 19 19 16 15 12 10 9 8 8 4 3 6 6 3 4 5 6 5 3 5 10 9 11 10 9 7 6 9 12 4 8 10 10 14 12 10 11 12 10 5 14 14 12 11 8 6
14 12 12 11 13 14 13 19 20 19 16 13 11 10 8 8 8 1 3 4 8 2 2 6 4 8 3 5 7 7 8 6 8 9 10 11 9 6 11 13 14 16 12 11 7 10 14 13 13 12 12 10 6 9
12 11 12 11 13 12 18 22 20 18 15 12 12 10 9 5 5 5 4 7 2 1 2 4 4 3 8 6 6 5 5 6 7 8 8 10 11 12 12 12 14 13 12 14 16 17 18 16 13 14 13 11 11 9
11 11 12 12 11 17 22 22 21 18 15 16 14 14 5 4 4 4 9 8 2 2 3 4 4 3 5 7 3 5 6 7 7 8 12 9 11 9 7 14 11 7 11 13 13 13 12 11 12 11 11 11 10 10
12 11 11 10 18 23 24 23 20 19 18 19 9 3 3 4 18 14 7 4 2 3 3 4 7 5 4 8 7 8 7 7 5 10 8 13 12 15 13 13 8 11 14 15 17 15 12 12 8 9 9 12 8 7
7 12 11 19 24 25 24 22 21 21 16 4 4 2 3 5 4 5 4 5 5 4 5 5 11 8 4 6 4 2 4 3 6 7 8 6 11 10 5 1 6 10 11 12 14 15 17 16 15 11 9 8 8 1
8 15 21 24 24 24 23 23 24 10 6 5 5 4 2 3 3 5 6 3 5 4 5 8 7 9 4 4 5 2 4 4 5 3 3 7 5 6 3 5 8 9 11 14 15 15 14 14 16 14 9 7 4 4
19 22 23 23 22 21 22 22 11 9 6 2 2 6 4 6 6 7 8 5 5 6 5 5 7 5 5 6 5 3 6 7 7 4 7 5 5 5 6 8 10 11 12 13 13 11 13 13 15 8 6 7 8 8
21 21 20 20 19 19 20 14 10 3 2 3 5 4 5 4 7 6 7 2 3 4 10 7 4 4 7 8 5 5 5 2 3 5 4 5 5 6 8 9 10 12 13 10 5 5 7 8 7 8 6 6 11 8
19 19 18 16 13 19 14 11 5 1 3 3 4 5 8 5 3 2 0 3 5 5 5 4 5 6 5 5 5 3 3 6 7 4 5 6 7 8 9 11 12 10 13 7 3 1 1 2 4 5 7 9 13 14
19 12 6 9 20 16 14 6 3 1 3 3 5 5 5 6 7 5 4 5 5 3 2 5 3 4 6 4 5 7 6 4 3 4 6 7 8 8 9 10 9 9 9 8 5 2 5 6 6 7 8 10 9 11
6 4 9 17 17 12 9 3 0 2 4 4 4 3 3 5 0 2 1 2 2 7 5 3 6 6 3 4 6 4 3 4 4 5 5 5 8 8 9 9 8 7 8 6 3 7 6 7 8 7 8 9 11 10
5 8 18 20 11 5 1 1 1 3 4 5 4 2 2 3 2 3 1 3 4 4 5 2 5 5 4 4 5 2 1 1 1 2 4 6 7 8 7 9 7 9 4 6 7 5 7 8 8 7 8 7 8 9
9 9 13 8 1 2 3 4 2 3 5 4 6 5 5 2 3 6 5 5 5 2 4 3 6 6 6 2 5 4 4 6 4 6 5 5 3 6 9 8 6 4 5 3 3 3 5 4 5 6 8 9 8 8
15 11 9 9 4 1 3 3 4 5 4 3 5 6 6 5 3 5 6 4 6 4 6 6 7 8 5 3 3 4 4 4 5 7 7 6 4 5 7 7 4 2 3 4 5 2 5 5 4 3 1 5 7 8
4 3 3 5 1 3 3 4 7 5 4 4 3 5 5 3 5 2 3 3 4 4 7 8 8 8 8 9 8 5 6 8 9 9 7 8 5 4 5 1 2 2 4 5 4 3 4 6 5 4 4 5 5 6
3 3 1 2 4 4 4 4 3 2 4 5 5 3 3 3 2 1 2 4 4 7 9 10 10 10 8 10 11 11 9 8 8 9 9 7 7 4 2 4 5 4 4 5 4 2 4 3 1 4 5 6 5 6
7 3 4 6 3 2 4 2 4 2 3 3 3 2 1 1 2 2 3 3 4 2 4 8 7 11 12 11 8 10 10 10 9 9 5 6 5 5 3 3 3 3 3 3 6 3 4 3 2 4 5 5 6 6
4 4 2 2 5 3 3 3 4 3 1 1 2 3 1 2 3 2 3 2 3 6 4 7 6 5 5 8 8 7 6 6 8 7 3 3 2 4 4 3 2 5 12 8 8 8 8 6 5 7 6 6 7 7
3 3 3 5 4 3 4 2 2 1 2 1 1 2 2 2 1 3 3 1 3 8 8 7 4 1 2 2 4 3 4 4 3 4 3 5 3 6 6 4 3 7 9 5 8 6 6 4 5 7 6 6 6 7
3 3 3 4 3 3 5 4 3 2 1 1 2 1 2 2 1 1 1 5 5 5 8 8 7 7 7 6 5 4 4 5 5 6 6 5 5 8 7 4 2 4 6 6 7 4 5 6 4 5 5 8 1 6
4 2 2 1 3 3 1 1 1 1 2 2 1 1 0 4 6 5 4 5 4 3 4 5 4 3 4 5 3 2 1 2 2 5 4 5 4 4 5 9 9 4 4 7 7 9 4 2 4 4 4 2 4 4
3 3 5 4 1 2 2 3 3 4 3 3 1 6 4 5 4 4 3 6 6 5 6 5 5 6 5 2 5 5 9 4 6 5 7 7 6 8 8 6 8 16 10 10 6 5 3 3 3 4 4 4 4 5
3 2 4 7 5 4 5 7 6 4 5 3 4 4 4 3 2 4 4 6 5 7 4 8 5 8 5 10 8 7 6 3 3 9 10 6 6 5 7 8 7 8 7 5 2 4 5 6 7 7 7 2 1 4
3 4 4 9 6 6 5 4 2 4 10 9 8 8 4 4 4 3 3 5 7 5 7 10 10 10 11 8 9 11 10 8 9 8 6 5 5 6 4 4 4 4 3 1 4 7 2 6 6 7 6 8 4 3
2 3 4 5 3 3 3 5 3 3 2 7 8 8 6 3 3 10 11 10 10 11 10 10 10 10 10 10 9 10 10 11 14 15 14 9 9 8 7 6 5 5 5 6 6 5 2 5 4 4 6 6 5 5
1 4 4 3 3 4 3 4 4 4 6 6 6 2 6 9 10 8 10 10 11 11 11 10 10 10 11 9 8 8 10 9 10 11 15 11 10 12 11 9 8 7 7 8 8 6 2 4 6 7 6 8 9 6
3 5 5 4 2 2 1 1 3 2 3 3 4 5 9 9 10 6 8 10 10 10 10 9 8 8 9 10 10 6 5 8 9 9 8 7 8 12 9 9 9 10 11 10 9 8 7 8 6 7 7 8 7 8
Wind_Direction
240 241 237 241 244 248 231 219 199 195 196 205 214 216 232 248 229 275 21 155 290 290 302 282 285 282 273 264 264 71 233 220 264 232 247 258 259 221 257 265 271 280 218 255 302 306 233 348 314 319 6 338 350 341
235 236 236 235 239 243 229 218 195 190 190 195 207 204 214 230 219 261 276 78 276 263 319 326 297 295 285 302 309 292 333 297 0 258 236 269 259 273 258 263 242 245 265 307 187 236 58 251 11 353 349 333 331 316
233 231 232 230 234 232 230 218 193 183 183 190 198 197 201 214 214 242 314 326 234 258 259 232 239 230 221 240 259 280 224 27 249 2 316 316 283 300 270 232 245 215 297 272 283 295 44 10 85 18 355 327 314 303
231 227 228 228 229 227 224 216 187 179 178 185 192 194 194 201 206 239 246 329 279 303 277 118 44 215 238 227 226 240 281 241 279 283 270 264 259 230 270 277 296 300 354 269 273 263 259 225 117 358 325 305 308 311
227 224 227 233 227 218 216 205 179 173 177 179 185 188 183 191 187 248 267 265 268 300 324 333 317 252 236 228 221 230 236 245 260 249 232 245 250 260 260 275 274 264 244 260 287 1 287 30 322 317 309 297 288 311
219 220 229 230 227 205 203 187 170 169 168 170 179 170 170 168 190 231 227 203 202 223 277 271 23 226 174 241 212 218 222 229 240 252 252 270 296 255 267 259 248 242 256 232 284 147 218 200 272 291 284 290 248 316
208 218 231 231 212 190 190 170 160 159 164 170 156 149 156 169 214 257 355 11 349 238 263 276 222 150 217 201 192 202 205 215 227 231 244 265 261 216 260 266 280 298 301 302 284 296 293 286 286 298 301 277 250 268
210 218 227 226 194 182 170 156 152 150 148 147 141 141 142 149 273 248 199 194 313 226 221 261 264 195 188 193 171 179 190 211 202 246 235 235 235 236 251 266 262 259 265 280 277 267 268 271 273 270 269 257 265 266
213 224 218 203 186 167 152 145 142 147 155 137 133 132 141 241 205 151 115 146 230 296 274 251 281 73 187 238 112 181 214 210 232 217 237 245 231 231 230 235 256 269 277 284 285 250 248 248 250 258 253 247 262 266
214 205 192 179 162 146 141 140 146 144 139 134 146 175 178 191 116 133 168 163 193 222 245 269 272 260 247 226 196 182 191 231 210 213 229 230 247 257 237 248 290 311 286 279 269 260 245 267 247 243 255 250 272 279
203 177 181 155 141 138 141 143 142 136 138 190 158 162 43 147 185 206 204 201 171 214 213 235 237 234 220 260 199 290 271 268 241 230 206 223 223 205 132 293 305 295 282 268 262 261 260 255 252 258 259 260 267 211
176 153 141 137 138 141 144 147 146 160 166 151 110 102 129 213 231 235 184 199 207 239 209 213 200 217 260 230 258 207 236 243 224 156 279 254 87 93 29 325 313 307 292 283 271 257 252 246 247 255 272 260 219 174
135 131 132 135 139 143 145 148 161 110 106 91 189 158 178 176 216 216 195 165 204 194 183 231 183 206 202 240 252 202 242 223 144 217 226 107 107 54 0 343 325 312 302 289 273 259 246 229 233 244 212 247 167 141
117 122 127 132 136 141 145 147 145 130 231 196 168 160 220 216 218 187 219 329 109 209 166 201 214 218 220 190 217 239 216 282 248 258 233 96 46 16 5 340 337 329 312 297 318 252 210 223 213 201 180 162 132 111
112 115 119 122 135 137 125 119 127 42 276 233 204 192 230 207 262 294 113 226 197 129 154 215 231 226 178 223 250 223 232 231 218 190 95 82 27 11 357 357 337 324 299 309 343 315 177 181 197 175 173 174 129 141
109 102 99 142 127 117 105 95 62 319 245 246 235 247 267 257 214 185 233 234 154 181 242 234 245 222 213 177 234 215 231 199 58 78 75 50 15 360 356 340 331 320 309 316 12 59 122 128 143 134 107 104 127 139
90 77 147 127 118 97 54 56 315 262 284 242 254 265 249 269 300 260 319 299 245 219 225 198 237 202 226 242 209 238 31 52 13 61 38 40 354 348 345 339 336 326 341 13 71 56 53 86 94 122 135 156 146 139
77 128 127 124 119 122 126 266 293 262 255 252 260 254 239 298 339 248 312 255 201 227 249 288 302 229 226 279 3 84 113 312 45 20 345 1 349 345 337 343 324 311 23 26 1 129 149 135 137 125 124 123 127 130
123 124 125 107 125 167 140 183 216 280 258 256 254 247 229 152 211 236 228 217 226 254 290 254 256 254 248 278 44 49 13 30 2 320 317 297 29 352 337 339 307 340 41 56 331 5 50 26 88 140 140 170 140 149
110 103 68 32 356 119 175 194 175 238 263 260 258 222 232 226 222 240 238 244 234 199 213 224 251 266 315 42 42 332 318 322 307 305 302 310 7 357 359 332 335 60 93 130 120 211 143 126 132 93 3 105 134 130
118 76 31 3 344 234 263 230 205 240 270 262 274 279 269 261 260 256 264 212 242 231 237 242 270 280 343 344 333 336 292 276 277 282 283 280 341 355 338 258 148 29 73 57 78 68 39 70 81 120 151 121 126 121
87 144 241 203 258 224 253 243 277 295 261 270 309 308 298 311 296 354 352 244 241 243 244 264 275 289 284 274 271 272 263 257 255 264 249 246 263 282 275 235 189 138 98 86 321 146 139 121 155 143 120 101 105 119
156 187 229 217 255 222 260 196 258 300 292 348 310 300 26 329 7 350 273 278 270 291 291 300 304 286 274 284 297 278 266 258 255 262 268 282 289 267 194 184 129 121 108 212 200 136 99 60 93 114 127 164 126 140
162 255 257 250 227 269 121 213 197 233 323 303 329 307 338 0 332 263 272 275 277 292 278 255 245 283 290 273 267 273 288 284 271 291 261 238 216 142 123 128 121 218 230 162 137 140 162 141 157 167 157 155 156 161
256 269 208 259 250 253 239 200 146 88 22 335 313 12 344 311 300 271 266 321 349 4 6 17 29 340 310 84 57 21 8 349 316 254 166 122 110 112 93 52 355 340 355 3 130 129 120 162 155 140 150 150 151 155
279 174 218 340 356 331 21 12 29 11 325 301 287 224 202 236 242 279 12 348 353 350 351 353 357 355 358 7 3 337 3 6 352 56 75 86 100 112 104 105 356 321 337 345 334 330 194 179 191 177 177 140 123 268
302 308 299 245 311 357 335 235 234 244 233 239 271 264 203 36 1 16 6 5 9 322 308 295 296 282 273 299 6 77 188 104 72 95 93 79 81 93 148 151 190 240 303 290 285 282 277 262 273 245 216 236 282 268
328 304 340 10 70 49 9 341 3 13 15 344 327 30 43 36 39 339 320 306 290 272 271 276 265 273 281 135 146 117 101 97 94 115 137 152 162 149 179 211 229 255 261 260 257 252 305 326 310 306 288 253 237 209
267 330 332 28 57 53 32 10 27 0 326 35 49 34 42 15 322 302 286 316 42 350 25 158 217 280 303 84 76 86 79 83 144 122 107 114 129 167 197 206 209 213 196 140 91 11 20 356 359 354 326 355 310 250
20 356 17 53 44 31 26 15 55 78 81 76 95 107 79 305 271 232 255 20 34 38 28 30 28 38 46 41 62 66 58 43 22 24 48 60 52 40 42 37 25 22 23 166 145 151 197 241 209 241 251 275 52 15
314 347 60 50 57 47 358 345 3 51 107 152 135 117 131 165 51 40 32 25 37 27 29 37 42 28 39 52 32 32 49 42 30 26 9 20 24 15 3 1 357 4 3 345 336 330 304 301 321 342 328 338 328 295
59 48 79 91 63 352 350 19 20 41 30 26 9 356 108 85 74 49 32 33 31 29 22 37 40 39 18 35 44 75 44 44 31 31 23 18 9 352 344 2 3 353 344 319 306 304 340 306 315 336 349 315 311 294
66 75 99 93 82 103 78 65 10 60 350 24 59 2 75 77 66 54 39 44 37 20 14 19 28 39 37 27 14 21 87 89 100 101 82 44 15 354 346 1 348 331 333 325 328 332 331 29 4 349 359 360 354 352